FW1404 Weather Reports


Display with metric or nautical units.
time (UTC)temp
F
wind
direction
speed
MPH
gust
MPH
rain 1hr
in
rain 24hr
in
rain mn
in
humidity
%
barometer
mb
20260903015039 57 269 2.0 3.0 0.00 0.00 0.00 85 1018.0
20260903014538 58 269 2.0 3.0 0.00 0.00 0.00 85 1018.0
20260903014316 58 269 2.0 5.0 0.00 0.00 0.00 85 1018.1
20260903013814 58 269 2.0 5.0 0.00 0.00 0.00 85 1018.1
20260903013038 58 270 2.0 4.0 0.00 0.00 0.00 85 1018.2
20260903012816 58 270 2.0 3.0 0.00 0.00 0.00 85 1018.1
20260903012039 58 270 2.0 3.0 0.00 0.00 0.00 85 1018.2
20260903011538 58 270 2.0 3.0 0.00 0.00 0.00 86 1018.2
20260903011037 57 270 2.0 4.0 0.00 0.00 0.00 86 1018.1
20260903010538 57 270 3.0 4.0 0.00 0.00 0.00 86 1018.2
20260903010037 57 273 4.0 4.0 0.00 0.00 0.00 86 1018.2
20260903005538 57 272 4.0 5.0 0.00 0.00 0.00 86 1018.2
20260903005038 57 273 3.0 5.0 0.00 0.00 0.00 86 1018.2
20260903004537 56 275 2.0 5.0 0.00 0.00 0.00 85 1018.1
20260903004037 56 276 4.0 5.0 0.00 0.00 0.00 85 1018.1
20260903003610 56 276 2.0 3.0 0.00 0.00 0.00 85 1018.0
20260903003556 56 276 2.0 3.0 0.00 0.00 0.00 85 1018.1
20260903002537 56 276 0.0 0.0 0.00 0.00 0.00 85 1018.1
20260903002037 56 276 0.0 0.0 0.00 0.00 0.00 85 1018.1
20260903001536 56 276 0.0 0.0 0.00 0.00 0.00 85 1018.1
20260903001037 56 276 0.0 0.0 0.00 0.00 0.00 85 1018.1
20260903000536 56 276 0.0 0.0 0.00 0.00 0.00 85 1018.0
20260903000315 56 276 0.0 0.0 0.00 0.00 0.00 85 1018.1
20260902235535 56 276 0.0 1.0 0.00 0.00 0.00 85 1018.1
20260902235036 56 276 0.0 1.0 0.00 0.00 0.00 85 1018.1
20260902234536 56 276 1.0 1.0 0.00 0.00 0.00 86 1018.1
20260902234037 56 276 0.0 0.0 0.00 0.00 0.00 85 1018.1
20260902233537 56 276 0.0 0.0 0.00 0.00 0.00 85 1018.2
20260902233314 56 276 0.0 0.0 0.00 0.00 0.00 85 1018.3
20260902232535 56 276 0.0 0.0 0.00 0.00 0.00 85 1018.3
20260902232035 56 276 0.0 0.0 0.00 0.00 0.00 85 1018.2
20260902231535 56 276 0.0 0.0 0.00 0.00 0.00 85 1018.2
20260902231034 56 276 0.0 0.0 0.00 0.00 0.00 85 1018.2
20260902230537 56 276 0.0 0.0 0.00 0.00 0.00 85 1018.2
20260902230036 56 276 0.0 0.0 0.00 0.00 0.00 85 1018.2
20260902225534 55 276 0.0 0.0 0.00 0.00 0.00 85 1018.2
20260902225035 55 276 0.0 0.0 0.00 0.00 0.00 85 1018.3
20260902224809 55 276 0.0 0.0 0.00 0.00 0.00 85 1018.3
20260902224034 55 276 0.0 0.0 0.00 0.00 0.00 84 1018.3
20260902223815 55 276 0.0 0.0 0.00 0.00 0.00 84 1018.2
20260902223313 55 276 0.0 0.0 0.00 0.00 0.00 84 1018.3
20260902222533 55 276 0.0 0.0 0.00 0.00 0.00 83 1018.3
20260902222033 55 276 0.0 0.0 0.00 0.00 0.00 83 1018.3
20260902221533 55 276 0.0 0.0 0.00 0.00 0.00 83 1018.3
20260902221034 55 276 0.0 0.0 0.00 0.00 0.00 83 1018.3
20260902220534 55 276 0.0 0.0 0.00 0.00 0.00 83 1018.4
20260902220034 55 276 0.0 0.0 0.00 0.00 0.00 83 1018.4
20260902215504 55 276 0.0 0.0 0.00 0.00 0.00 83 1018.5
20260902215006 55 276 0.0 0.0 0.00 0.00 0.00 83 1018.5
20260902214506 56 276 0.0 0.0 0.00 0.00 0.00 82 1018.4
20260902214006 56 276 0.0 0.0 0.00 0.00 0.00 82 1018.5
20260902213505 56 276 0.0 0.0 0.00 0.00 0.00 82 1018.4
20260902213004 56 276 0.0 0.0 0.00 0.00 0.00 82 1018.4
20260902212506 56 276 0.0 0.0 0.00 0.00 0.00 81 1018.3
20260902212005 56 276 0.0 0.0 0.00 0.00 0.00 81 1018.3
20260902211506 56 276 0.0 0.0 0.00 0.00 0.00 81 1018.4
20260902211005 57 276 0.0 0.0 0.00 0.00 0.00 81 1018.3
20260902210503 57 276 0.0 0.0 0.00 0.00 0.00 81 1018.3
20260902210005 57 276 0.0 0.0 0.00 0.00 0.00 81 1018.3
20260902205745 57 276 0.0 0.0 0.00 0.00 0.00 81 1018.2
20260902205240 57 276 0.0 0.0 0.00 0.00 0.00 81 1018.3
20260902204505 57 276 0.0 0.0 0.00 0.00 0.00 81 1018.3
20260902204245 58 276 0.0 0.0 0.00 0.00 0.00 81 1018.3
20260902203505 58 276 0.0 0.0 0.00 0.00 0.00 81 1018.2
20260902203005 58 276 0.0 0.0 0.00 0.00 0.00 80 1018.4
20260902202744 58 276 0.0 0.0 0.00 0.00 0.00 80 1018.4
20260902202005 58 276 0.0 0.0 0.00 0.00 0.00 79 1018.5
20260902201714 58 276 0.0 0.0 0.00 0.00 0.00 79 1018.5
20260902200934 59 276 0.0 0.0 0.00 0.00 0.00 79 1018.5
20260902200433 59 276 0.0 0.0 0.00 0.00 0.00 79 1018.5
20260902195931 59 276 0.0 0.0 0.00 0.00 0.00 78 1018.4
20260902195433 59 276 0.0 0.0 0.00 0.00 0.00 78 1018.4
20260902194932 59 276 0.0 0.0 0.00 0.00 0.00 78 1018.4
20260902194433 60 276 0.0 2.0 0.00 0.00 0.00 77 1018.4
20260902193907 60 276 1.0 2.0 0.00 0.00 0.00 77 1018.4
20260902193405 60 276 1.0 2.0 0.00 0.00 0.00 77 1018.4
20260902193151 61 276 0.0 0.0 0.00 0.00 0.00 77 1018.4
20260902192407 61 276 0.0 0.0 0.00 0.00 0.00 76 1018.5
20260902191905 61 276 0.0 0.0 0.00 0.00 0.00 77 1018.5
20260902191457 62 276 0.0 0.0 0.00 0.00 0.00 77 1018.4
20260902191453 62 276 0.0 1.0 0.00 0.00 0.00 76 1018.3
20260902191441 62 276 0.0 0.0 0.00 0.00 0.00 76 1018.4
20260902185904 62 276 0.0 1.0 0.00 0.00 0.00 76 1018.3
20260902185404 63 276 0.0 2.0 0.00 0.00 0.00 76 1018.3
20260902184905 63 276 1.0 2.0 0.00 0.00 0.00 76 1018.3
20260902184405 63 276 1.0 2.0 0.00 0.00 0.00 76 1018.3
20260902183903 64 276 0.0 0.0 0.00 0.00 0.00 76 1018.3
20260902183404 64 276 0.0 0.0 0.00 0.00 0.00 75 1018.2
20260902182904 64 276 0.0 2.0 0.00 0.00 0.00 75 1018.1
20260902182402 64 276 0.0 2.0 0.00 0.00 0.00 75 1018.0
20260902181902 65 276 1.0 1.0 0.00 0.00 0.00 74 1018.1
20260902181404 65 276 1.0 1.0 0.00 0.00 0.00 74 1018.1
20260902181146 65 276 0.0 1.0 0.00 0.00 0.00 74 1018.0
20260902180403 65 276 0.0 1.0 0.00 0.00 0.00 74 1018.0
20260902175904 65 276 0.0 2.0 0.00 0.00 0.00 73 1017.9
20260902175404 65 276 1.0 2.0 0.00 0.00 0.00 72 1017.9
20260902175139 66 276 1.0 2.0 0.00 0.00 0.00 72 1017.9
20260902174404 66 276 1.0 2.0 0.00 0.00 0.00 71 1017.9
20260902173902 67 276 2.0 2.0 0.00 0.00 0.00 71 1017.9
20260902173403 67 276 0.0 2.0 0.00 0.00 0.00 69 1018.0
20260902172903 67 276 1.0 2.0 0.00 0.00 0.00 69 1018.0
20260902172404 68 276 0.0 2.0 0.00 0.00 0.00 68 1018.0
20260902172142 68 276 1.0 2.0 0.00 0.00 0.00 68 1017.9
20260902171403 68 276 0.0 4.0 0.00 0.00 0.00 67 1018.0
20260902170903 68 276 1.0 4.0 0.00 0.00 0.00 67 1018.0
20260902170405 68 275 3.0 6.0 0.00 0.00 0.00 68 1018.1
20260902165905 68 276 3.0 6.0 0.00 0.00 0.00 67 1018.0
20260902165346 68 272 2.0 5.0 0.00 0.00 0.00 67 1018.1
20260902165118 68 263 4.0 5.0 0.00 0.00 0.00 67 1018.1
20260902164335 68 275 2.0 5.0 0.00 0.00 0.00 66 1018.1
20260902163833 0 266 3.0 4.0 0.00 0.00 0.00 1018.0
20260902163305 69 284 3.0 4.0 0.00 0.00 0.00 65 1018.1
20260902162805 69 284 3.0 5.0 0.00 0.00 0.00 65 1018.1
20260902162245 69 270 4.0 6.0 0.00 0.00 0.00 65 1018.1
20260902162034 69 273 4.0 9.0 0.00 0.00 0.00 64 1018.0
20260902161245 69 270 5.0 10.0 0.00 0.00 0.00 64 1018.1
20260902160852 70 292 5.0 12.0 0.00 0.00 0.00 63 1018.1
20260902160824 69 277 4.0 11.0 0.00 0.00 0.00 63 1018.0
20260902155747 70 268 9.0 12.0 0.00 0.00 0.00 63 1018.1
20260902155309 70 258 3.0 7.0 0.00 0.00 0.00 63 1018.1
20260902154744 70 272 4.0 9.0 0.00 0.00 0.00 64 1018.1
20260902154248 70 255 4.0 9.0 0.00 0.00 0.00 65 1018.1
20260902154027 70 317 3.0 11.0 0.00 0.00 0.00 65 1018.3
20260902153539 70 248 5.0 11.0 0.00 0.00 0.00 64 1018.3
20260902152744 70 272 5.0 10.0 0.00 0.00 0.00 64 1018.4
20260902152557 70 297 4.0 9.0 0.00 0.00 0.00 65 1018.4
20260902151745 70 256 3.0 11.0 0.00 0.00 0.00 64 1018.4
20260902151244 70 270 5.0 11.0 0.00 0.00 0.00 64 1018.4
20260902150744 70 289 4.0 10.0 0.00 0.00 0.00 64 1018.5
20260902150330 70 231 8.0 12.0 0.00 0.00 0.00 63 1018.4
20260902150311 70 284 7.0 10.0 0.00 0.00 0.00 64 1018.5
20260902145244 70 297 6.0 12.0 0.00 0.00 0.00 64 1018.3
20260902144743 70 242 3.0 11.0 0.00 0.00 0.00 64 1018.5
20260902144244 70 255 5.0 11.0 0.00 0.00 0.00 64 1018.5
20260902143745 71 255 7.0 11.0 0.00 0.00 0.00 65 1018.4
20260902143243 71 244 5.0 7.0 0.00 0.00 0.00 64 1018.5
20260902142743 71 284 2.0 7.0 0.00 0.00 0.00 66 1018.5
20260902142243 71 276 5.0 10.0 0.00 0.00 0.00 65 1018.7
20260902141743 70 296 5.0 10.0 0.00 0.00 0.00 66 1018.7
20260902141533 70 222 6.0 9.0 0.00 0.00 0.00 66 1018.7
20260902140743 70 232 5.0 6.0 0.00 0.00 0.00 67 1018.7
20260902140244 70 251 3.0 9.0 0.00 0.00 0.00 67 1018.7
20260902140022 70 308 4.0 9.0 0.00 0.00 0.00 67 1018.8
20260902135243 70 249 5.0 7.0 0.00 0.00 0.00 66 1018.8
20260902134742 70 262 2.0 7.0 0.00 0.00 0.00 68 1018.9
20260902134243 70 252 4.0 12.0 0.00 0.00 0.00 67 1019.0
20260902133743 70 237 5.0 12.0 0.00 0.00 0.00 66 1018.9
20260902133243 70 227 5.0 9.0 0.00 0.00 0.00 65 1018.9
20260902132743 70 217 4.0 10.0 0.00 0.00 0.00 67 1019.0
20260902132336 69 256 5.0 9.0 0.00 0.00 0.00 67 1019.0
20260902132312 70 258 4.0 10.0 0.00 0.00 0.00 66 1019.0
20260902131240 69 208 5.0 12.0 0.00 0.00 0.00 67 1019.1
20260902130740 69 272 7.0 12.0 0.00 0.00 0.00 68 1019.1
20260902130532 69 182 8.0 12.0 0.00 0.00 0.00 67 1019.2
20260902125742 69 241 7.0 10.0 0.00 0.00 0.00 70 1019.1
20260902125242 69 241 6.0 10.0 0.00 0.00 0.00 69 1019.1
20260902124742 69 273 6.0 10.0 0.00 0.00 0.00 68 1019.2
20260902124242 69 218 6.0 10.0 0.00 0.00 0.00 68 1019.2
20260902123740 69 272 3.0 11.0 0.00 0.00 0.00 68 1019.3
20260902123542 69 222 4.0 14.0 0.00 0.00 0.00 67 1019.2
20260902122740 70 214 8.0 14.0 0.00 0.00 0.00 68 1019.3
20260902122243 69 218 8.0 11.0 0.00 0.00 0.00 68 1019.3
20260902121741 69 213 6.0 10.0 0.00 0.00 0.00 68 1019.4
20260902121241 69 245 6.0 9.0 0.00 0.00 0.00 68 1019.3
20260902120739 69 232 5.0 9.0 0.00 0.00 0.00 66 1019.4
20260902120534 69 325 5.0 12.0 0.00 0.00 0.00 66 1019.4
20260902115741 70 211 9.0 12.0 0.00 0.00 0.00 67 1019.5
20260902115242 70 231 5.0 10.0 0.00 0.00 0.00 67 1019.4
20260902114740 70 225 4.0 12.0 0.00 0.00 0.00 66 1019.4
20260902114241 70 268 8.0 12.0 0.00 0.00 0.00 66 1019.4
20260902113740 70 245 5.0 10.0 0.00 0.00 0.00 67 1019.4
20260902113240 70 197 4.0 12.0 0.00 0.00 0.00 66 1019.5
20260902112741 70 266 6.0 12.0 0.00 0.00 0.00 66 1019.4
20260902112241 70 249 9.0 12.0 0.00 0.00 0.00 65 1019.4
20260902111741 71 225 6.0 10.0 0.00 0.00 0.00 64 1019.5
20260902111240 71 218 6.0 13.0 0.00 0.00 0.00 65 1019.5
20260902110741 71 245 7.0 13.0 0.00 0.00 0.00 64 1019.6
20260902110239 71 279 4.0 10.0 0.00 0.00 0.00 66 1019.7
20260902105741 71 252 4.0 10.0 0.00 0.00 0.00 66 1019.6
20260902105241 71 283 7.0 10.0 0.00 0.00 0.00 66 1019.6
20260902104741 71 253 2.0 10.0 0.00 0.00 0.00 67 1019.5
20260902104238 70 225 7.0 10.0 0.00 0.00 0.00 67 1019.6
20260902104045 70 303 3.0 10.0 0.00 0.00 0.00 68 1019.6
20260902103238 70 234 8.0 11.0 0.00 0.00 0.00 67 1019.7
20260902102739 70 272 7.0 11.0 0.00 0.00 0.00 66 1019.7
20260902102239 70 266 3.0 11.0 0.00 0.00 0.00 66 1019.8
20260902101739 71 277 6.0 11.0 0.00 0.00 0.00 65 1019.9
20260902101238 71 300 3.0 5.0 0.00 0.00 0.00 67 1020.0
20260902101100 71 282 3.0 11.0 0.00 0.00 0.00 67 1019.9
20260902100239 70 231 7.0 11.0 0.00 0.00 0.00 68 1020.0
20260902095738 70 272 7.0 11.0 0.00 0.00 0.00 68 1020.0
20260902095238 70 262 6.0 11.0 0.00 0.00 0.00 69 1020.0
20260902094740 69 265 4.0 11.0 0.00 0.00 0.00 69 1020.0
20260902094238 69 258 3.0 11.0 0.00 0.00 0.00 70 1020.0
20260902093737 69 263 7.0 11.0 0.00 0.00 0.00 69 1020.0
20260902093238 70 215 2.0 9.0 0.00 0.00 0.00 70 1020.0
20260902092737 69 242 4.0 10.0 0.00 0.00 0.00 70 1020.0
20260902092236 68 269 6.0 11.0 0.00 0.00 0.00 70 1019.9
20260902091738 69 270 8.0 11.0 0.00 0.00 0.00 68 1020.0
20260902091239 69 237 5.0 10.0 0.00 0.00 0.00 68 1020.1
20260902090739 70 197 4.0 10.0 0.00 0.00 0.00 63 1020.0
20260902090534 70 282 6.0 9.0 0.00 0.00 0.00 66 1019.9
20260902085738 70 315 3.0 5.0 0.00 0.00 0.00 68 1020.0
20260902085236 69 273 4.0 5.0 0.00 0.00 0.00 68 1020.0
20260902084737 69 296 2.0 6.0 0.00 0.00 0.00 69 1019.9
20260902084236 69 248 4.0 7.0 0.00 0.00 0.00 68 1019.9
20260902083736 69 246 4.0 7.0 0.00 0.00 0.00 68 1020.1
20260902083239 69 224 4.0 9.0 0.00 0.00 0.00 68 1020.1
20260902083019 69 270 5.0 9.0 0.00 0.00 0.00 69 1020.1
20260902082233 69 308 3.0 6.0 0.00 0.00 0.00 68 1020.1
20260902081735 69 228 5.0 6.0 0.00 0.00 0.00 70 1020.1
20260902081234 69 262 2.0 5.0 0.00 0.00 0.00 70 1020.0
20260902080734 69 207 3.0 5.0 0.00 0.00 0.00 69 1019.9
20260902080205 69 232 4.0 6.0 0.00 0.00 0.00 69 1019.8
20260902075705 69 204 5.0 6.0 0.00 0.00 0.00 69 1019.8
20260902075203 69 266 2.0 7.0 0.00 0.00 0.00 71 1019.8
20260902074706 69 224 2.0 7.0 0.00 0.00 0.00 71 1019.9
20260902074204 69 280 2.0 6.0 0.00 0.00 0.00 72 1019.9
20260902073703 68 263 4.0 6.0 0.00 0.00 0.00 75 1019.9
20260902073203 67 283 3.0 5.0 0.00 0.00 0.00 76 1019.8
20260902072703 67 259 4.0 5.0 0.00 0.00 0.00 77 1020.0
20260902072443 66 213 2.0 7.0 0.00 0.00 0.00 78 1020.0
20260902071703 65 211 3.0 7.0 0.00 0.00 0.00 79 1019.9
20260902071446 64 255 5.0 9.0 0.00 0.00 0.00 82 1019.9
20260902070705 63 262 2.0 9.0 0.00 0.00 0.00 82 1020.0
20260902070203 62 265 4.0 6.0 0.00 0.00 0.00 82 1019.9
20260902065704 62 300 3.0 6.0 0.00 0.00 0.00 83 1020.0
20260902065204 62 308 3.0 12.0 0.00 0.00 0.00 83 1020.1
20260902064949 62 273 6.0 12.0 0.00 0.00 0.00 83 1020.1
20260902064204 62 270 5.0 10.0 0.00 0.00 0.00 84 1020.1
20260902063703 61 270 5.0 9.0 0.00 0.00 0.00 84 1020.0
20260902063447 61 273 2.0 7.0 0.00 0.00 0.00 83 1019.9
20260902062703 61 256 3.0 7.0 0.00 0.00 0.00 83 1020.0
20260902062204 61 263 3.0 7.0 0.00 0.00 0.00 83 1020.0
20260902061703 61 272 5.0 7.0 0.00 0.00 0.00 83 1020.0
20260902061445 61 245 4.0 7.0 0.00 0.00 0.00 84 1019.9
20260902060703 61 252 4.0 12.0 0.00 0.00 0.00 84 1019.9
20260902060203 61 244 6.0 12.0 0.00 0.00 0.00 85 1019.9
20260902055704 60 297 5.0 9.0 0.00 0.00 0.00 86 1019.9
20260902055203 60 252 5.0 7.0 0.00 0.00 0.00 86 1019.8
20260902054703 60 292 4.0 9.0 0.00 0.00 0.00 87 1019.7
20260902054205 59 258 5.0 9.0 0.00 0.00 0.00 87 1019.7
20260902053743 59 255 4.0 9.0 0.00 0.00 0.00 87 1019.7
20260902053733 59 229 3.0 9.0 0.00 0.00 0.00 87 1019.7
20260902052703 58 269 3.0 6.0 0.00 0.00 0.00 87 1019.7
20260902052204 58 262 4.0 6.0 0.00 0.00 0.00 87 1019.6
20260902051744 58 263 4.0 5.0 0.00 0.00 0.00 87 1019.4
20260902051734 58 252 5.0 6.0 0.00 0.00 0.00 87 1019.5
20260902050944 58 263 3.0 5.0 0.00 0.00 0.00 87 1019.3
20260902050446 58 266 4.0 5.0 0.00 0.00 0.00 87 1019.3
20260902045705 58 258 2.0 5.0 0.00 0.00 0.00 87 1019.3
20260902045205 58 258 3.0 5.0 0.00 0.00 0.00 87 1019.2
20260902044706 57 259 3.0 6.0 0.00 0.00 0.00 87 1019.3
20260902044206 58 239 4.0 6.0 0.00 0.00 0.00 86 1019.2
20260902043705 58 255 4.0 7.0 0.00 0.00 0.00 86 1019.1
20260902043203 58 253 4.0 7.0 0.00 0.00 0.00 86 1019.1
20260902042704 58 251 4.0 7.0 0.00 0.00 0.00 86 1019.1
20260902042203 58 242 4.0 7.0 0.00 0.00 0.00 85 1019.1
20260902041704 58 256 3.0 7.0 0.00 0.00 0.00 85 1019.1
20260902041204 58 255 3.0 5.0 0.00 0.00 0.00 85 1019.2
20260902040703 58 249 3.0 5.0 0.00 0.00 0.00 85 1019.2
20260902040204 58 251 3.0 5.0 0.00 0.00 0.00 84 1019.1
20260902035703 58 244 3.0 5.0 0.00 0.00 0.00 84 1019.0
20260902035203 58 249 3.0 6.0 0.00 0.00 0.00 84 1019.1
20260902034704 58 248 4.0 6.0 0.00 0.00 0.00 84 1019.0
20260902034203 58 241 3.0 6.0 0.00 0.00 0.00 84 1019.0
20260902033703 59 242 4.0 6.0 0.00 0.00 0.00 83 1019.0
20260902033203 59 242 4.0 6.0 0.00 0.00 0.00 83 1019.0
20260902032705 59 248 5.0 6.0 0.00 0.00 0.00 83 1019.1
20260902032455 59 245 3.0 5.0 0.00 0.00 0.00 82 1019.0
20260902031704 59 245 3.0 5.0 0.00 0.00 0.00 82 1019.1
20260902031204 60 251 3.0 5.0 0.00 0.00 0.00 82 1019.0
20260902030704 60 251 3.0 5.0 0.00 0.00 0.00 82 1018.9
20260902030203 60 249 2.0 4.0 0.00 0.00 0.00 82 1018.9
20260902025941 60 255 3.0 4.0 0.00 0.00 0.00 82 1019.0
20260902025206 60 255 3.0 5.0 0.00 0.00 0.00 81 1018.9
20260902024944 60 255 3.0 6.0 0.00 0.00 0.00 81 1019.0
20260902024246 60 255 2.0 4.0 0.00 0.00 0.00 81 1018.9
20260902024233 60 260 3.0 6.0 0.00 0.00 0.00 81 1018.9
20260902023204 60 268 2.0 5.0 0.00 0.00 0.00 81 1018.9
20260902022703 60 266 3.0 6.0 0.00 0.00 0.00 80 1019.0
20260902022203 60 279 4.0 9.0 0.00 0.00 0.00 80 1018.9
20260902021705 60 258 3.0 9.0 0.00 0.00 0.00 80 1018.9
20260902021205 60 266 3.0 10.0 0.00 0.00 0.00 80 1018.9
20260902020703 61 259 5.0 10.0 0.00 0.00 0.00 80 1018.9
20260902020452 61 253 4.0 9.0 0.00 0.00 0.00 80 1018.9